Regional Weather Roundup
Issued by NWS Mt. Holly, NJ

Home | Current Version | Previous Version | Text Only | Print | Product List | Glossary On
Versions: 1 2 3 4 5 6 7 8 9 10 11 12 13 14 15 16 17 18 19 20 21 22 23 24 25 26 27 28 29 30 31 32 33 34 35 36 37 38 39 40 41 42 43 44 45 46 47 48 49 50
000
ASUS41 KPHI 202110
RWRPHI

REGIONAL WEATHER ROUNDUP
NATIONAL WEATHER SERVICE MOUNT HOLLY NJ
500 PM EDT MON OCT 20 2014

NOTE:  "FAIR" INDICATES FEW OR NO CLOUDS BELOW 12,000 FEET WITH NO
SIGNIFICANT WEATHER AND/OR OBSTRUCTIONS TO VISIBILITY.

 * = STATION DOES NOT REPORT PRECIPITATION (E.G. RAIN, SNOW, ETC.)
        OR FOG.

NJZ015>026-202200-
SOUTHERN NEW JERSEY

CITY           SKY/WX    TMP DP  RH WIND       PRES   REMARKS
POMONA         MOSUNNY   62  44  51 S10       29.99F
RIO GRANDE*    MOSUNNY   63  43  48 S15G23    30.00F
MILLVILLE      MOSUNNY   62  45  53 VRB5      29.98F
WRIGHTSTOWN    MOSUNNY   61  38  42 SW10      29.97F
MOUNT HOLLY    PTSUNNY   61  39  44 S6        29.98F
TRENTON        MOSUNNY   59  36  42 SW8       29.98F

$$
NJZ001>014-202200-
NORTHERN NEW JERSEY

CITY           SKY/WX    TMP DP  RH WIND       PRES   REMARKS
SUSSEX         PTSUNNY   59  37  44 SW8       29.96S
ANDOVER*         N/A     57  36  45 S3        29.96F
MORRISTOWN     PTSUNNY   61  39  44 SW12      29.97F
NEWARK         PTSUNNY   61  37  41 S10       29.98F
TETERBORO      PTSUNNY   60  36  40 S9        29.96F
CALDWELL       PTSUNNY   59  35  40 VRB5      29.97F
SOMERVILLE     MOSUNNY   61  37  41 VRB7      29.95F
ALLAIRE*       MOSUNNY   61  39  44 SE5       29.99F
TOMS RIVER*    SUNNY     63  36  36 SW6       29.99F

$$
PAZ043-044-047-054-055-060>062-066>071-202200-
EASTERN PENNSYLVANIA

CITY           SKY/WX    TMP DP  RH WIND       PRES   REMARKS
PHILADELPHIA   PTSUNNY   62  40  44 S6        29.98F
NORTH PHILA    PTSUNNY   62  36  37 S6        29.99F
BLUE BELL      MOSUNNY   59  39  47 CALM      29.96F
DOYLESTOWN     MOSUNNY   57  37  47 S6G16     29.97F
QUAKERTOWN*    MOSUNNY   59  39  47 S8        29.98S
POTTSTOWN      PTSUNNY   59  39  47 VRB5      29.98F
LANCASTER      CLOUDY    58  43  57 S9        29.96S
COATESVILLE    CLOUDY    57  41  54 S7        29.96F
READING        CLOUDY    59  41  51 S10G17    29.95S
ALLENTOWN      PTSUNNY   59  38  45 S13       29.96F
MOUNT POCONO   CLOUDY    51  36  56 S10       29.94F
HAZLETON       PTSUNNY   54  37  54 S7        29.96S
WILKES BARRE   CLOUDY    57  35  43 S8        29.93S

$$
DEZALL-MDZ008-012-015-019-020-202200-
DELAWARE AND EASTERN MARYLAND

CITY           SKY/WX    TMP DP  RH WIND       PRES   REMARKS
WILMINGTON     PTSUNNY   62  41  46 SW7       29.98F
DOVER          MOSUNNY   63  43  47 S10       29.96F
GEORGETOWN     SUNNY     65  36  34 SW14G22   29.99F
EASTON         PTSUNNY   64  45  48 S10G18    30.01F
PATUXENT       PTSUNNY   64  39  39 S10G17    29.97F
OCEAN CITY     SUNNY     62  44  51 SW14G20   30.01F
WALLOPS ISLAND SUNNY     63  43  48 SW14      30.02F
SALISBURY      SUNNY     66  43  43 S10       29.99F

$$
PAZ001-021-NYZ056-072-MDZ011-DCZ001-202200-
OTHER NEARBY LOCATIONS

CITY           SKY/WX    TMP DP  RH WIND       PRES   REMARKS
HARRISBURG     CLOUDY    61  41  47 SW8       29.93S
STATE COLLEGE  PTSUNNY   55  37  50 S8        29.90F
WILLIAMSPORT   CLOUDY    59  33  37 VRB3      29.90F
BINGHAMTON     CLOUDY    50  36  58 SW7       29.90S
NEW YORK CITY  PTSUNNY   59  38  45 VRB3      30.00F
BALTIMORE      PTSUNNY   65  44  46 VRB3      29.94F
WASHINGTON DC  PTSUNNY   68  45  43 S13       29.95F

$$


USA.gov is the U.S. government's official web portal to all federal, state and local government web resources and services.